Torna al catalogo

BUGSAT 1

AttivoScienzaPO
NORAD 40014·PAYLOAD·🇦🇷 Argentina

Lanciato Jun 19, 2014 da Dombarovsky

Loading…

Prossimi Passaggi (prossime 24 ore)

TLE

AggiornatoSource: Space-Track

Epoca: Sep 14, 2026, 12:54 UTC

1 40014U 14033E   26257.53771410  .00004913  00000-0  25493-3 0  9993
2 40014  98.0430 355.3638 0026312 234.0200 125.8592 15.16365266669377

Traccia BUGSAT 1 in tempo reale con AllMySat

Download on the App Store